When you browse on this site, cookies collect data to enhance your experience and personalize the content and advertising you see.
Visit our Privacy Policy to learn more. By continuing to use the site, you agree to this use of cookies and data.
  • In Österreich
  • Länderverzeichnis
  • Für 7 Tage
  • Wassertemperatur
  • Satellitenkarten
  • Wetterkarte
  • News
  • Widgets
  • user-avatar
    Anmelden

    Stündliche Wetter Samsonovo

    Heute, 21 November, Mittwoch

    Zeit Temperatur Niederschläge Wind Luftdruck Luftfeuchtigkeit
    00:00 -6°C° 0 mm 2 m/S 761 mmHg 90%
    01:00 -6°C° 0 mm 2 m/S 761 mmHg 91%
    02:00 -3°C° 0 mm 1 m/S 761 mmHg 92%
    03:00 -2°C° 0 mm 1 m/S 761 mmHg 93%
    04:00 -2°C° 0 mm 1 m/S 761 mmHg 93%
    05:00 -4°C° 0 mm 2 m/S 761 mmHg 93%
    06:00 -4°C° 0 mm 2 m/S 761 mmHg 93%
    07:00 -4°C° 0 mm 2 m/S 761 mmHg 93%
    08:00 -4°C° 0 mm 2 m/S 761 mmHg 93%
    09:00 -3°C° 0 mm 2 m/S 761 mmHg 91%
    10:00 -3°C° 0 mm 2 m/S 761 mmHg 89%
    11:00 -2°C° 0 mm 2 m/S 761 mmHg 87%
    12:00 -2°C° 0 mm 2 m/S 761 mmHg 86%
    13:00 -2°C° 0 mm 2 m/S 761 mmHg 85%
    14:00 -2°C° 0 mm 2 m/S 761 mmHg 84%
    15:00 -2°C° 0 mm 2 m/S 761 mmHg 86%
    16:00 -2°C° 0 mm 2 m/S 761 mmHg 88%
    17:00 -3°C° 0 mm 2 m/S 761 mmHg 89%
    18:00 -3°C° 0 mm 2 m/S 761 mmHg 90%
    19:00 -3°C° 0 mm 2 m/S 760 mmHg 91%
    20:00 -3°C° 0 mm 2 m/S 760 mmHg 93%
    21:00 -4°C° 0 mm 2 m/S 760 mmHg 93%
    22:00 -4°C° 0 mm 2 m/S 760 mmHg 94%
    23:00 -5°C° 0 mm 2 m/S 760 mmHg 95%

    Morgen, 22 November, Donnerstag

    Zeit Temperatur Niederschläge Wind Luftdruck Luftfeuchtigkeit
    00:00 -5°C° 0 mm 2 m/S 759 mmHg 95%
    01:00 -5°C° 0 mm 2 m/S 759 mmHg 95%
    02:00 -5°C° 0 mm 2 m/S 759 mmHg 95%
    03:00 -5°C° 0 mm 2 m/S 759 mmHg 95%
    04:00 -5°C° 0 mm 3 m/S 758 mmHg 94%
    05:00 -5°C° 0 mm 3 m/S 758 mmHg 94%
    06:00 -5°C° 0 mm 3 m/S 757 mmHg 93%
    07:00 -5°C° 0 mm 3 m/S 757 mmHg 93%
    08:00 -5°C° 0 mm 3 m/S 757 mmHg 92%
    09:00 -4°C° 0 mm 4 m/S 756 mmHg 89%
    10:00 -4°C° 0 mm 4 m/S 756 mmHg 87%
    11:00 -3°C° 0 mm 4 m/S 756 mmHg 84%
    12:00 -3°C° 0 mm 4 m/S 756 mmHg 84%
    13:00 -3°C° 0 mm 4 m/S 756 mmHg 83%
    14:00 -2°C° 0 mm 4 m/S 755 mmHg 83%
    15:00 -2°C° 0 mm 4 m/S 755 mmHg 84%
    16:00 -2°C° 0 mm 4 m/S 755 mmHg 85%
    17:00 -2°C° 0 mm 4 m/S 755 mmHg 86%
    18:00 -2°C° 0 mm 4 m/S 755 mmHg 86%
    19:00 -2°C° 0 mm 4 m/S 756 mmHg 87%
    20:00 -1°C° 0 mm 3 m/S 756 mmHg 88%
    21:00 -1°C° 0 mm 3 m/S 756 mmHg 89%
    22:00 -1°C° 0 mm 3 m/S 756 mmHg 90%
    23:00 -1°C° 0 mm 3 m/S 756 mmHg 90%

    übermorgen, 23 November, Freitag

    Zeit Temperatur Niederschläge Wind Luftdruck Luftfeuchtigkeit
    00:00 -1°C° 0 mm 3 m/S 757 mmHg 92%
    01:00 -1°C° 0 mm 2 m/S 757 mmHg 93%
    02:00 -1°C° 0 mm 2 m/S 757 mmHg 94%
    03:00 -1°C° 0 mm 2 m/S 758 mmHg 94%
    04:00 -2°C° 0 mm 2 m/S 758 mmHg 95%
    05:00 0°C° 0 mm 1 m/S 758 mmHg 96%
    06:00 0°C° 0 mm 1 m/S 758 mmHg 96%
    07:00 0°C° 0 mm 1 m/S 759 mmHg 96%
    08:00 0°C° 0 mm 1 m/S 759 mmHg 96%
    09:00 0°C° 0 mm 1 m/S 759 mmHg 94%
    10:00 +1°C° 0 mm 1 m/S 759 mmHg 92%
    11:00 -1°C° 0 mm 2 m/S 760 mmHg 90%
    12:00 -1°C° 0 mm 2 m/S 759 mmHg 89%
    13:00 -1°C° 0 mm 2 m/S 759 mmHg 88%
    14:00 -1°C° 0 mm 2 m/S 759 mmHg 87%
    15:00 -1°C° 0 mm 2 m/S 759 mmHg 87%
    16:00 -1°C° 0 mm 2 m/S 759 mmHg 87%
    17:00 -1°C° 0 mm 3 m/S 758 mmHg 87%
    18:00 -1°C° 0 mm 3 m/S 758 mmHg 87%
    19:00 -1°C° 0 mm 3 m/S 758 mmHg 88%
    20:00 -1°C° 0 mm 3 m/S 757 mmHg 88%
    21:00 -1°C° 0 mm 3 m/S 757 mmHg 87%
    22:00 -2°C° 0 mm 4 m/S 756 mmHg 86%
    23:00 -3°C° 0 mm 4 m/S 756 mmHg 85%

    24 November, Samstag

    Zeit Temperatur Niederschläge Wind Luftdruck Luftfeuchtigkeit
    00:00 -3°C° 0 mm 4 m/S 755 mmHg 86%
    01:00 -3°C° 0 mm 4 m/S 755 mmHg 86%
    02:00 -3°C° 0 mm 4 m/S 755 mmHg 86%
    03:00 -4°C° 0 mm 4 m/S 754 mmHg 87%
    04:00 -4°C° 0 mm 4 m/S 754 mmHg 88%
    05:00 -4°C° 0 mm 3 m/S 753 mmHg 89%
    06:00 -5°C° 0 mm 3 m/S 753 mmHg 89%
    07:00 -5°C° 0 mm 3 m/S 752 mmHg 90%
    08:00 -6°C° 0 mm 3 m/S 752 mmHg 91%
    09:00 -5°C° 0 mm 3 m/S 752 mmHg 88%
    10:00 -5°C° 0 mm 3 m/S 751 mmHg 86%
    11:00 -4°C° 0 mm 3 m/S 751 mmHg 83%
    12:00 -4°C° 0 mm 3 m/S 751 mmHg 83%
    13:00 -2°C° 0 mm 3 m/S 750 mmHg 82%
    14:00 -2°C° 0 mm 3 m/S 750 mmHg 81%
    15:00 -2°C° 0.1 mm 3 m/S 750 mmHg 84%
    16:00 -2°C° 0.1 mm 2 m/S 750 mmHg 87%
    17:00 -3°C° 0.1 mm 2 m/S 750 mmHg 90%
    18:00 -2°C° 0.1 mm 2 m/S 750 mmHg 91%
    19:00 -2°C° 0.1 mm 2 m/S 750 mmHg 91%
    20:00 -2°C° 0.1 mm 2 m/S 750 mmHg 92%
    21:00 0°C° 0 mm 1 m/S 750 mmHg 93%
    22:00 -1°C° 0 mm 1 m/S 750 mmHg 94%
    23:00 -1°C° 0 mm 1 m/S 751 mmHg 95%

    25 November, Sonntag

    Zeit Temperatur Niederschläge Wind Luftdruck Luftfeuchtigkeit
    00:00 -1°C° 0 mm 1 m/S 751 mmHg 96%
    01:00 -2°C° 0 mm 0 m/S 751 mmHg 96%
    02:00 -2°C° 0 mm 0 m/S 751 mmHg 96%
    03:00 -2°C° 0 mm 0 m/S 751 mmHg 96%
    04:00 -2°C° 0 mm 0 m/S 751 mmHg 95%
    05:00 -2°C° 0 mm 0 m/S 750 mmHg 95%
    06:00 -2°C° 0 mm 0 m/S 750 mmHg 95%
    07:00 -2°C° 0 mm 0 m/S 750 mmHg 95%
    08:00 -1°C° 0 mm 1 m/S 750 mmHg 94%
    09:00 -1°C° 0 mm 1 m/S 750 mmHg 92%
    10:00 0°C° 0 mm 1 m/S 750 mmHg 89%
    11:00 0°C° 0 mm 1 m/S 750 mmHg 87%
    12:00 0°C° 0 mm 1 m/S 750 mmHg 86%
    13:00 0°C° 0 mm 1 m/S 750 mmHg 85%
    14:00 0°C° 0 mm 1 m/S 750 mmHg 84%
    15:00 0°C° 0 mm 1 m/S 750 mmHg 86%
    16:00 -3°C° 0 mm 2 m/S 750 mmHg 87%
    17:00 -4°C° 0 mm 2 m/S 749 mmHg 89%
    18:00 -4°C° 0 mm 2 m/S 749 mmHg 90%
    19:00 -5°C° 0 mm 2 m/S 749 mmHg 91%
    20:00 -5°C° 0 mm 2 m/S 749 mmHg 93%
    21:00 -5°C° 0 mm 2 m/S 749 mmHg 90%
    22:00 -5°C° 0 mm 2 m/S 750 mmHg 87%
    23:00 -6°C° 0 mm 3 m/S 750 mmHg 85%

    26 November, Montag

    Zeit Temperatur Niederschläge Wind Luftdruck Luftfeuchtigkeit
    00:00 -5°C° 0 mm 2 m/S 750 mmHg 85%
    01:00 -5°C° 0 mm 2 m/S 750 mmHg 86%
    02:00 -6°C° 0 mm 2 m/S 750 mmHg 87%
    03:00 -6°C° 0 mm 2 m/S 750 mmHg 87%
    04:00 -7°C° 0 mm 3 m/S 750 mmHg 87%
    05:00 -6°C° 0 mm 3 m/S 750 mmHg 87%
    06:00 -7°C° 0 mm 3 m/S 750 mmHg 86%
    07:00 -6°C° 0 mm 2 m/S 750 mmHg 86%
    08:00 -6°C° 0 mm 2 m/S 751 mmHg 85%
    09:00 -5°C° 0 mm 2 m/S 751 mmHg 82%
    10:00 -5°C° 0 mm 2 m/S 751 mmHg 79%
    11:00 -5°C° 0 mm 2 m/S 751 mmHg 76%
    12:00 -4°C° 0 mm 2 m/S 751 mmHg 76%
    13:00 -4°C° 0 mm 2 m/S 751 mmHg 77%
    14:00 -4°C° 0 mm 2 m/S 751 mmHg 78%
    15:00 -5°C° 0 mm 2 m/S 752 mmHg 82%
    16:00 -5°C° 0 mm 2 m/S 752 mmHg 87%
    17:00 -4°C° 0 mm 1 m/S 752 mmHg 92%
    18:00 -4°C° 0 mm 1 m/S 752 mmHg 93%
    19:00 -6°C° 0 mm 2 m/S 752 mmHg 93%
    20:00 -6°C° 0 mm 2 m/S 752 mmHg 94%
    21:00 -6°C° 0 mm 2 m/S 752 mmHg 94%
    22:00 -5°C° 0 mm 2 m/S 752 mmHg 94%
    23:00 -5°C° 0 mm 2 m/S 752 mmHg 94%
    Mehr zeigen